{"data":{"norad_id":83903,"intl_designator":"","name":"UNKNOWN","alt_names":[],"object_type":"UNKNOWN","status":"UNKNOWN","operator":null,"country":null,"launch_date":null,"launch_site_code":null,"launch_vehicle":null,"mission":null,"orbit_class":"UNKNOWN","rcs_meters":null,"size_class":null,"mass_kg":null,"dimensions":null,"purposes":[],"wikipedia_slug":null,"has_3d_model":false,"image_url":null,"decayed_at":null,"tle_current":{"epoch":"2026-09-17T20:35:32.992800Z","epoch_age_seconds":246623,"freshness":"STALE","line1":"1 83903U          26260.85802075 -.00000074  00000+0  00000+0 0  9994","line2":"2 83903   5.5047 288.2907 0124565 259.2145 137.9626  0.99115727 46435","mean_motion":0.99115727,"eccentricity":0.0124565,"inclination_deg":5.5047,"raan_deg":288.2907,"arg_perigee_deg":259.2145,"mean_anomaly_deg":137.9626,"bstar":0,"rev_number":4643,"period_min":1452.8471349456,"perigee_km":35584.524812265,"apogee_km":36643.127085207,"semimajor_km":42491.962948736,"source":"CELESTRAK","updated_at":"2026-09-20T09:00:32.441631Z"}}}